Location: Newark
(52.0267°N, 0.2640°W)
Time: 11:37:01
(UTC+00:00)

N. Korean satellite - Visible Passes

Search period start: 08 March 2021 00:00
Search period end: 18 March 2021 00:00
Orbit: 451 x 502 km, 97.2° (Epoch: 07 March)

Date Brightness Start Highest point End Pass type
(mag) Time Alt. Az. Time Alt. Az. Time Alt. Az.
08 Mar 9.3 04:44:09 10° NE 04:46:57 21° E 04:49:47 10° SE visible
09 Mar 10.0 04:18:35 10° ENE 04:19:56 12° E 04:21:16 10° ESE visible
09 Mar 6.5 05:50:06 10° N 05:53:40 71° WNW 05:57:15 10° SSW visible
10 Mar 7.3 05:23:19 10° NNE 05:26:52 57° E 05:30:26 10° S visible
11 Mar 8.8 04:56:47 10° NNE 04:59:59 29° E 05:03:11 10° SSE visible
12 Mar 9.7 04:30:40 10° NE 04:32:59 16° E 04:35:17 10° SE visible
13 Mar 6.7 05:36:10 10° NNE 05:39:48 81° ESE 05:43:26 10° SSW visible
14 Mar 8.1 05:09:29 10° NNE 05:12:55 40° E 05:16:23 10° S visible
15 Mar 9.4 04:43:05 10° NE 04:45:57 21° E 04:48:49 10° SE visible
16 Mar 10.0 04:17:29 10° ENE 04:18:52 12° E 04:20:17 10° ESE visible
17 Mar 7.4 05:22:12 10° NNE 05:25:48 56° E 05:29:24 10° S visible
